Simultaneous Nadir Overpasses (SNOs) Predictions

Prediction of SNOs between NOAA-21 and METOP-C Satellite Orbit:

Table of predicted SNOs for the next 14.0 days since TLE Epoch: 12/22/2022
Index Date (NOAA-21) Time (NOAA-21) Lat,Lon (NOAA-21) SZA (NOAA-21 ) Date (METOP-C) Time (METOP-C) Lat,Lon (METOP-C) SZA (METOP-C ) Distance(km) Time Diff (sec)
1 01/04/2023 05:49:14 -73.56, -97.06 83.51 01/04/2023 05:50:20 -73.50, -93.98 83.72 97.43 66
2 01/04/2023 06:39:56 73.38, 70.67 96.28 01/04/2023 06:41:04 73.34, 72.98 96.13 73.68 68
3 01/04/2023 07:30:38 -73.27,-121.78 83.84 01/04/2023 07:31:47 -73.23,-119.93 83.97 59.27 69
4 01/04/2023 08:21:20 73.08, 45.94 95.95 01/04/2023 08:22:31 73.06, 47.03 95.88 35.34 71
5 01/04/2023 09:12:02 -72.97,-146.51 84.17 01/04/2023 09:13:15 -72.91,-145.97 84.27 18.98 73
6 01/04/2023 10:02:44 72.78, 21.20 95.62 01/04/2023 10:03:58 72.79, 21.11 95.62 3.06 74
7 01/04/2023 10:53:28 -72.78,-171.47 84.39 01/04/2023 10:54:39 -72.79,-171.57 84.39 3.35 71
8 01/04/2023 11:44:14 72.79, -4.18 95.62 01/04/2023 11:45:19 72.82, -4.17 95.64 3.34 65
9 01/04/2023 12:34:58 -72.78, 163.14 84.39 01/04/2023 12:36:00 -72.81, 163.15 84.37 3.59 62
10 01/04/2023 13:25:44 72.79, -29.57 95.62 01/04/2023 13:26:41 72.80, -29.56 95.61 0.53 57
11 01/04/2023 14:16:28 -72.79, 137.76 84.40 01/04/2023 14:17:22 -72.79, 137.77 84.40 0.59 54
12 01/04/2023 15:07:14 72.80, -54.96 95.62 01/04/2023 15:08:03 72.77, -54.94 95.58 2.91 49
13 01/04/2023 15:57:58 -72.79, 112.37 84.40 01/04/2023 15:58:44 -72.77, 112.38 84.43 2.54 46
14 01/04/2023 16:48:43 72.75, -80.24 95.56 01/04/2023 16:49:25 72.75, -80.33 95.56 3.02 42
15 01/04/2023 17:39:27 -72.75, 87.09 84.45 01/04/2023 17:40:06 -72.75, 86.99 84.46 3.19 39
16 01/04/2023 18:30:13 72.76,-105.62 95.56 01/04/2023 18:30:46 72.78,-105.61 95.57 2.29 33
17 01/04/2023 19:20:57 -72.75, 61.71 84.45 01/04/2023 19:21:27 -72.78, 61.71 84.44 2.62 30
18 01/04/2023 20:11:43 72.76,-131.01 95.56 01/04/2023 20:12:08 72.76,-131.00 95.55 0.97 25
19 01/04/2023 21:02:27 -72.76, 36.32 84.46 01/04/2023 21:02:49 -72.75, 36.33 84.46 0.53 22
20 01/04/2023 21:53:12 72.72,-156.29 95.50 01/04/2023 21:53:30 72.73,-156.38 95.52 3.46 18
21 01/04/2023 22:43:57 -72.76, 10.93 84.46 01/04/2023 22:44:11 -72.73, 10.94 84.49 3.53 14
22 01/04/2023 23:34:42 72.72, 178.32 95.50 01/04/2023 23:34:52 72.71, 178.23 95.49 3.33 10
23 01/05/2023 00:25:26 -72.72, -14.35 84.51 01/05/2023 00:25:33 -72.71, -14.44 84.52 3.31 7
24 01/05/2023 01:16:12 72.73, 152.94 95.50 01/05/2023 01:16:13 72.74, 152.95 95.51 1.24 1



Historial Predications of SNOs between NOAA-21 and METOP-C
